DW5707 Weather Reports


time (UTC)temp
C
wind
direction
speed
KPH
gust
KPH
rain 1hr
cm
rain 24hr
cm
rain mn
cm
humidity
%
barometer
mb
20260507075232 10 357 3.2 6.4 0.00 0.79 0.28 95 1010.8
20260507074728 10 354 1.6 4.8 0.00 0.79 0.28 95 1010.8
20260507073728 10 345 0.0 3.2 0.03 0.79 0.28 95 1010.7
20260507073227 10 345 1.6 6.4 0.03 0.79 0.28 95 1010.9
20260507072727 10 345 3.2 8.0 0.03 0.79 0.28 95 1010.9
20260507072228 10 345 4.8 8.0 0.03 0.79 0.28 95 1011.0
20260507071728 10 354 3.2 8.0 0.03 0.79 0.28 96 1011.1
20260507071228 9 345 1.6 4.8 0.05 0.79 0.28 95 1011.2
20260507070724 9 345 1.6 4.8 0.08 0.79 0.28 95 1011.2
20260507070223 9 345 0.0 3.2 0.08 0.79 0.28 95 1011.3
20260507065723 9 345 0.0 1.6 0.08 0.79 0.28 95 1011.2
20260507065223 9 345 0.0 1.6 0.10 0.79 0.28 95 1011.3
20260507064722 9 345 0.0 0.0 0.10 0.79 0.28 95 1011.4
20260507063722 10 345 0.0 1.6 0.08 0.76 0.25 95 1011.2
20260507063224 10 345 0.0 1.6 0.08 0.76 0.25 94 1011.4
20260507062220 10 345 1.6 4.8 0.08 0.76 0.25 94 1011.5
20260507061719 10 345 1.6 9.7 0.08 0.76 0.25 94 1011.5
20260507061219 10 345 1.6 9.7 0.05 0.74 0.23 94 1011.5
20260507060719 10 345 1.6 3.2 0.03 0.71 0.20 94 1011.3
20260507060220 10 345 1.6 6.4 0.03 0.71 0.20 94 1011.3
20260507055719 10 354 1.6 6.4 0.03 0.71 0.20 94 1011.2
20260507055221 11 350 1.6 4.8 0.00 0.69 0.18 94 1011.2
20260507054720 11 350 3.2 9.7 0.00 0.69 0.18 94 1011.2
20260507054220 11 350 6.4 14.5 0.00 0.69 0.18 94 1011.3
20260507053720 11 336 6.4 14.5 0.00 0.69 0.18 94 1011.4
20260507053219 11 327 3.2 14.5 0.00 0.69 0.18 94 1011.3
20260507052719 11 336 1.6 4.8 0.00 0.69 0.18 94 1011.3
20260507051719 11 336 4.8 12.9 0.03 0.69 0.18 94 1011.1
20260507051218 11 350 4.8 12.9 0.03 0.69 0.18 94 1011.2
20260507050721 11 345 4.8 9.7 0.08 0.69 0.18 94 1011.2
20260507050219 11 355 4.8 12.9 0.18 0.69 0.18 93 1011.3
20260507045720 11 345 4.8 12.9 0.18 0.69 0.18 94 1011.2
20260507044720 11 345 9.7 17.7 0.18 0.69 0.18 93 1011.3
20260507043720 11 345 8.0 20.9 0.18 0.69 0.18 93 1011.1
20260507043220 11 345 8.0 20.9 0.18 0.69 0.18 93 1011.0
20260507042714 11 345 8.0 14.5 0.18 0.69 0.18 93 1011.0
20260507042214 11 345 8.0 9.7 0.15 0.66 0.15 93 1010.7
20260507041714 11 354 9.7 17.7 0.15 0.66 0.15 92 1010.6
20260507041216 12 345 11.3 17.7 0.15 0.66 0.15 92 1010.8
20260507040712 12 345 12.9 20.9 0.10 0.61 0.10 91 1010.7
20260507040209 12 345 12.9 20.9 0.00 0.51 0.00 90 1010.7
20260507035709 12 327 12.9 20.9 0.00 0.51 0.51 89 1010.6
20260507035207 12 328 12.9 20.9 0.00 0.51 0.51 90 1010.3
20260507034708 12 345 14.5 20.9 0.00 0.51 0.51 90 1010.5
20260507033712 12 316 12.9 22.5 0.00 0.51 0.51 90 1010.6
20260507033211 12 345 12.9 22.5 0.00 0.51 0.51 90 1010.5
20260507032209 12 345 9.7 22.5 0.00 0.51 0.51 90 1010.6
20260507031705 13 345 6.4 16.1 0.00 0.51 0.51 90 1010.5
20260507031205 13 345 8.0 16.1 0.00 0.51 0.51 91 1010.5
20260507030703 13 345 6.4 14.5 0.00 0.51 0.51 91 1010.6
20260507025702 13 350 9.7 14.5 0.00 0.51 0.51 91 1010.4
20260507024703 13 332 11.3 16.1 0.00 0.51 0.51 91 1010.5
20260507024203 13 308 12.9 17.7 0.00 0.51 0.51 91 1010.4
20260507023702 13 345 12.9 17.7 0.00 0.51 0.51 90 1010.2
20260507023204 13 350 12.9 17.7 0.03 0.51 0.51 91 1010.2
20260507022704 13 350 12.9 17.7 0.05 0.51 0.51 91 1010.2
20260507022203 13 336 11.3 17.7 0.08 0.51 0.51 91 1010.1
20260507021704 14 345 11.3 16.1 0.08 0.51 0.51 91 1010.0
20260507021202 14 345 12.9 20.9 0.08 0.51 0.51 91 1010.1
20260507020701 14 345 14.5 20.9 0.08 0.51 0.51 91 1010.1
20260507015700 14 336 8.0 17.7 0.08 0.51 0.51 92 1010.1
20260507014701 15 350 9.7 17.7 0.08 0.51 0.51 94 1010.0
20260507014159 15 336 11.3 17.7 0.08 0.51 0.51 93 1010.2
20260507013658 15 345 11.3 19.3 0.10 0.51 0.51 93 1010.1
20260507013158 15 350 14.5 19.3 0.08 0.48 0.48 92 1010.2
20260507012657 15 350 12.9 22.5 0.05 0.46 0.46 92 1010.5
20260507012158 15 345 11.3 22.5 0.03 0.43 0.43 93 1010.4
20260507011658 16 323 9.7 14.5 0.03 0.43 0.43 93 1010.5
20260507011159 16 327 9.7 16.1 0.03 0.43 0.43 93 1010.4
20260507005151 16 325 9.7 14.5 0.03 0.43 0.43 92 1010.2
20260507004653 16 314 9.7 16.1 0.03 0.43 0.43 91 1010.2
20260507004153 17 345 11.3 17.7 0.03 0.43 0.43 90 1009.9
20260507003651 17 314 8.0 17.7 0.00 0.41 0.41 89 1009.9
20260507003156 17 340 3.2 16.1 0.00 0.41 0.41 90 1009.7
20260507002654 17 350 1.6 4.8 0.00 0.41 0.41 91 1009.6
20260507002153 17 318 3.2 4.8 0.00 0.41 0.41 91 1009.6
20260507001150 17 298 1.6 6.4 0.00 0.41 0.41 91 1009.4
20260507000649 17 300 0.0 1.6 0.00 0.41 0.41 90 1009.3
20260507000144 17 296 1.6 4.8 0.00 0.41 0.41 90 1009.3
20260506235648 18 296 1.6 4.8 0.00 0.41 0.41 90 1008.9
20260506235145 18 237 1.6 4.8 0.00 0.41 0.41 90 1008.8
20260506234651 18 251 3.2 6.4 0.00 0.41 0.41 89 1008.9
20260506234144 18 261 1.6 8.0 0.00 0.41 0.41 89 1009.0
20260506233140 18 237 0.0 3.2 0.00 0.41 0.41 89 1008.8
20260506232641 18 238 0.0 9.7 0.00 0.41 0.41 89 1008.8
20260506232140 18 238 1.6 9.7 0.00 0.41 0.41 88 1008.8
20260506231641 18 237 1.6 8.0 0.00 0.41 0.41 88 1008.7
20260506231139 18 240 1.6 8.0 0.00 0.41 0.41 88 1008.7
20260506230639 18 271 1.6 9.7 0.00 0.41 0.41 88 1008.7
20260506230138 18 244 1.6 9.7 0.00 0.41 0.41 88 1008.6
20260506225638 18 256 3.2 9.7 0.00 0.41 0.41 88 1008.8
20260506225137 18 281 1.6 9.7 0.00 0.41 0.41 88 1008.6
20260506224637 18 222 1.6 6.4 0.00 0.41 0.41 88 1008.6
20260506223636 18 281 1.6 4.8 0.00 0.41 0.41 88 1008.6
20260506223136 18 185 1.6 6.4 0.00 0.41 0.41 88 1008.7
20260506222136 18 212 1.6 4.8 0.00 0.41 0.41 88 1008.7
20260506221137 18 248 0.0 3.2 0.00 0.41 0.41 89 1008.7
20260506220631 18 248 1.6 6.4 0.00 0.41 0.41 89 1008.6
20260506220133 18 248 3.2 6.4 0.00 0.41 0.41 88 1008.7
20260506215632 18 219 3.2 9.7 0.00 0.41 0.41 87 1008.7
20260506215133 18 229 3.2 9.7 0.00 0.41 0.41 87 1008.7
20260506214631 18 259 3.2 9.7 0.00 0.41 0.41 87 1008.7
20260506213134 18 242 1.6 6.4 0.00 0.41 0.41 87 1008.3
20260506212633 18 249 1.6 4.8 0.00 0.41 0.41 87 1008.0
20260506212133 18 249 1.6 8.0 0.00 0.41 0.41 86 1008.0
20260506211634 18 227 3.2 12.9 0.00 0.41 0.41 86 1008.0
20260506211143 18 169 3.2 12.9 0.00 0.41 0.41 86 1007.9
20260506210632 18 227 3.2 11.3 0.00 0.41 0.41 86 1007.9
20260506210131 19 238 3.2 11.3 0.00 0.41 0.41 85 1008.0
20260506205632 19 310 4.8 12.9 0.00 0.41 0.41 85 1007.8
20260506205133 19 258 4.8 14.5 0.00 0.41 0.41 85 1007.9
20260506204135 19 340 8.0 17.7 0.00 0.41 0.41 84 1008.0
20260506203629 19 190 6.4 17.7 0.00 0.41 0.41 85 1007.9
20260506203128 19 234 4.8 16.1 0.00 0.41 0.41 85 1007.9
20260506202629 19 252 4.8 12.9 0.00 0.41 0.41 85 1007.8
20260506201628 19 262 6.4 19.3 0.00 0.41 0.41 85 1008.0
20260506201133 19 209 6.4 17.7 0.00 0.41 0.41 84 1007.9
20260506200128 20 301 8.0 19.3 0.00 0.41 0.41 83 1007.9
20260506195627 20 266 8.0 19.3 0.00 0.41 0.41 84 1007.8
20260506195128 20 242 6.4 16.1 0.00 0.41 0.41 83 1007.8
20260506194628 20 258 4.8 14.5 0.00 0.41 0.41 85 1007.7
20260506194131 20 340 4.8 11.3 0.00 0.41 0.41 87 1007.8
20260506193630 19 195 4.8 12.9 0.00 0.41 0.41 88 1007.9
20260506193126 18 181 4.8 12.9 0.00 0.41 0.41 88 1007.9
20260506192620 18 186 1.6 9.7 0.00 0.41 0.41 89 1008.0
20260506192118 18 133 1.6 12.9 0.00 0.41 0.41 90 1008.0
20260506191617 17 275 3.2 12.9 0.00 0.41 0.41 90 1008.1
20260506190615 17 172 4.8 16.1 0.00 0.41 0.41 90 1008.3
20260506190114 17 179 4.8 16.1 0.00 0.41 0.41 90 1008.3
20260506185616 17 198 4.8 11.3 0.00 0.41 0.41 90 1008.3
20260506185116 17 156 6.4 17.7 0.00 0.41 0.41 90 1008.4
20260506184616 17 174 6.4 17.7 0.00 0.41 0.41 90 1008.4
20260506184111 17 201 6.4 16.1 0.00 0.41 0.41 90 1008.4
20260506183611 17 190 6.4 14.5 0.00 0.41 0.41 92 1008.4
20260506183109 17 202 4.8 14.5 0.00 0.41 0.41 91 1008.4
20260506182609 17 266 4.8 12.9 0.00 0.41 0.41 92 1008.5
20260506182109 17 358 4.8 14.5 0.00 0.41 0.41 93 1008.5
20260506181606 16 218 6.4 14.5 0.00 0.41 0.41 94 1008.5
20260506175605 16 345 3.2 17.7 0.00 0.41 0.41 94 1008.9
20260506175054 16 135 4.8 17.7 0.00 0.41 0.41 94 1008.8
20260506174055 15 345 4.8 17.7 0.00 0.41 0.41 95 1008.8
20260506173054 15 345 3.2 11.3 0.00 0.41 0.41 95 1008.8
20260506172553 15 182 3.2 14.5 0.00 0.41 0.41 95 1008.7
20260506172053 15 190 4.8 17.7 0.00 0.41 0.41 95 1008.8
20260506171553 15 233 4.8 17.7 0.00 0.41 0.41 95 1008.8
20260506171054 15 163 4.8 16.1 0.00 0.41 0.41 95 1008.8
20260506170556 15 345 6.4 16.1 0.00 0.41 0.41 95 1008.7
20260506165546 15 217 4.8 19.3 0.00 0.41 0.41 95 1008.8
20260506165040 15 192 6.4 20.9 0.00 0.41 0.41 95 1008.8
20260506164539 15 298 6.4 20.9 0.00 0.41 0.41 95 1008.7
20260506163540 15 227 4.8 16.1 0.03 0.41 0.41 95 1008.7
20260506161539 15 202 6.4 19.3 0.05 0.41 0.41 96 1009.1
20260506161039 15 165 4.8 12.9 0.08 0.41 0.41 96 1009.1
20260506160539 15 232 6.4 17.7 0.08 0.41 0.41 96 1009.1
20260506160055 15 178 6.4 17.7 0.10 0.41 0.41 96 1009.1
20260506155543 15 131 4.8 19.3 0.15 0.41 0.41 96 1008.9
20260506155040 15 228 8.0 19.3 0.15 0.41 0.41 96 1008.9
20260506154037 15 165 6.4 19.3 0.18 0.41 0.41 96 1008.8
20260506153536 15 217 6.4 19.3 0.18 0.38 0.38 96 1008.8
20260506153035 15 109 6.4 16.1 0.18 0.38 0.38 96 1008.6
20260506152030 15 162 6.4 24.1 0.15 0.36 0.36 95 1009.0
20260506151529 15 123 4.8 24.1 0.15 0.36 0.36 95 1009.3
20260506151029 15 204 4.8 11.3 0.15 0.33 0.33 95 1009.5
20260506150531 15 187 4.8 17.7 0.15 0.33 0.33 95 1009.6
20260506150029 15 180 6.4 17.7 0.13 0.30 0.30 95 1009.6
20260506145529 15 146 6.4 19.3 0.10 0.25 0.25 95 1009.6
20260506145029 15 177 8.0 19.3 0.10 0.25 0.25 95 1009.6
20260506144029 15 187 4.8 24.1 0.10 0.23 0.23 95 1009.5
20260506143529 15 164 6.4 17.7 0.08 0.20 0.20 95 1009.5
20260506143027 15 179 6.4 17.7 0.10 0.20 0.20 95 1009.5
20260506142520 15 203 6.4 16.1 0.10 0.20 0.20 94 1009.5
20260506142015 15 138 6.4 16.1 0.13 0.20 0.20 94 1009.4
20260506141515 15 181 8.0 19.3 0.15 0.20 0.20 94 1009.2
20260506141015 15 179 6.4 19.3 0.13 0.18 0.20 94 1009.2
20260506140513 15 148 6.4 20.9 0.13 0.18 0.18 94 1009.4
20260506140015 15 158 6.4 20.9 0.15 0.18 0.18 94 1009.5
20260506135514 15 160 4.8 11.3 0.13 0.15 0.15 94 1009.5
20260506135018 15 239 3.2 11.3 0.15 0.15 0.15 94 1009.7
20260506134517 15 155 4.8 16.1 0.15 0.15 0.15 93 1009.5
20260506134015 15 85 4.8 16.1 0.13 0.13 0.13 93 1009.6
20260506133517 15 193 4.8 11.3 0.13 0.13 0.13 93 1009.6
20260506133013 15 167 6.4 14.5 0.10 0.10 0.10 92 1009.7
20260506132509 15 170 4.8 17.7 0.10 0.10 0.10 92 1009.6
20260506131509 15 198 4.8 11.3 0.05 0.05 0.05 91 1009.6
20260506131007 15 201 4.8 14.5 0.05 0.05 0.05 90 1009.6
20260506130506 15 192 3.2 14.5 0.05 0.05 0.05 90 1009.7
20260506130003 16 174 3.2 8.0 0.03 0.03 0.03 89 1009.6
20260506125505 16 133 3.2 14.5 0.03 0.03 0.03 88 1009.6
20260506125005 16 213 4.8 14.5 0.00 0.00 0.00 87 1009.6
20260506124503 16 150 4.8 11.3 0.00 0.00 0.00 87 1009.6
20260506124004 16 199 4.8 16.1 0.00 0.00 0.00 86 1009.6
20260506123506 16 345 6.4 16.1 0.00 0.00 0.00 85 1009.7
20260506123003 16 345 6.4 14.5 0.00 0.00 0.00 85 1009.7
20260506122504 16 155 4.8 14.5 0.00 0.00 0.00 84 1009.7
20260506122004 16 147 6.4 17.7 0.00 0.00 0.00 83 1009.9
20260506121503 16 200 6.4 17.7 0.00 0.00 0.00 83 1010.0
20260506121004 17 169 6.4 17.7 0.00 0.00 0.00 83 1010.0
20260506115505 17 173 6.4 14.5 0.00 0.00 0.00 82 1009.9
20260506114959 16 252 6.4 16.1 0.00 0.00 0.00 82 1009.8
20260506114459 16 202 4.8 16.1 0.00 0.00 0.00 82 1009.7
20260506114000 16 156 3.2 12.9 0.00 0.00 0.00 83 1009.5
20260506113459 16 97 4.8 17.7 0.00 0.00 0.00 82 1009.5
20260506113000 16 191 4.8 17.7 0.00 0.00 0.00 82 1009.5
20260506112509 16 176 3.2 12.9 0.00 0.00 0.00 82 1009.4
20260506112001 16 220 3.2 12.9 0.00 0.00 0.00 82 1009.5
20260506111506 17 220 3.2 12.9 0.00 0.00 0.00 81 1009.4
20260506111003 17 147 3.2 12.9 0.00 0.00 0.00 81 1009.3
20260506110515 17 170 3.2 16.1 0.00 0.00 0.00 80 1009.4
20260506110000 17 189 4.8 16.1 0.00 0.00 0.00 80 1009.4
20260506105459 17 260 4.8 17.7 0.00 0.00 0.00 80 1009.3
20260506104958 17 182 4.8 17.7 0.00 0.00 0.00 80 1009.1
20260506104458 17 96 3.2 9.7 0.00 0.00 0.00 80 1009.1
20260506103956 17 223 4.8 19.3 0.00 0.00 0.00 79 1009.0
20260506103505 17 149 6.4 19.3 0.00 0.00 0.00 79 1009.0
20260506102956 17 73 6.4 22.5 0.00 0.00 0.00 79 1008.9
20260506102457 17 172 4.8 22.5 0.00 0.00 0.00 79 1008.8
20260506101954 17 221 4.8 24.1 0.00 0.00 0.00 79 1008.9
20260506100953 17 144 6.4 19.3 0.00 0.00 0.00 79 1009.0
20260506100454 17 125 4.8 19.3 0.00 0.00 0.00 78 1009.0
20260506095951 17 135 4.8 16.1 0.00 0.00 0.00 78 1009.0
20260506095452 17 182 4.8 16.1 0.00 0.00 0.00 78 1008.9
20260506094951 17 134 4.8 8.0 0.00 0.00 0.00 78 1008.9
20260506094452 17 210 4.8 9.7 0.00 0.00 0.00 77 1009.0
20260506093950 17 202 4.8 14.5 0.00 0.00 0.00 77 1008.9
20260506092451 17 125 3.2 11.3 0.00 0.00 0.00 76 1008.8
20260506091954 17 268 4.8 14.5 0.00 0.00 0.00 76 1008.8
20260506091451 17 127 4.8 14.5 0.00 0.00 0.00 76 1008.9
20260506090952 17 141 3.2 14.5 0.00 0.00 0.00 76 1008.9
20260506090451 17 210 4.8 19.3 0.00 0.00 0.00 75 1009.1
20260506085944 17 142 4.8 19.3 0.00 0.00 0.00 75 1009.1
20260506085444 17 163 3.2 11.3 0.00 0.00 0.00 75 1009.2
20260506084944 17 185 3.2 12.9 0.00 0.00 0.00 74 1009.2
20260506084442 17 259 4.8 12.9 0.00 0.00 0.00 74 1009.2
20260506083941 17 119 4.8 12.9 0.00 0.00 0.00 74 1009.2
20260506083441 18 107 4.8 12.9 0.00 0.00 0.00 73 1009.2
20260506082942 18 191 6.4 14.5 0.00 0.00 0.00 73 1009.2
20260506081938 18 98 4.8 11.3 0.00 0.00 0.00 72 1009.2
20260506081438 18 113 3.2 11.3 0.00 0.00 0.00 72 1009.2
20260506080939 18 184 3.2 11.3 0.00 0.00 0.00 71 1009.1